Starlink 30307

operational
NORAD ID: 57747 Int'l Des: 2023-131 Owner: SPXS Country: US Constellation: starlink
LEOCIRCULAR

Starlink 30307について

説明を読み込み中...

リアルタイム位置

3D地球を読み込み中...

次回通過

高度履歴

Altitude vs Time

uPlot chart will show altitude changes over time

軌道要素

1 57747U 23131R 25352.44395738 -.00000778 00000-0 -42510-4 0 9990
2 57747 43.0018 253.1789 0002461 305.0242 55.0369 15.02539864127700
Epoch: Dec 18, 2025 • Age: 10 hours

現在のステータス

高度 559.5 km
速度 7.58 km/s
衛星直下点 12.66°N, 15.13°E
打ち上げ日 Sep 1, 2023
運用期間 2.2 years
タイプ internet

技術仕様

分類 Payload
質量 730.00 kg
乾燥質量 700.00 kg
総質量 730.00 kg
長さ 0.30 m
直径 4.10 m
スパン 29.00 m
形状 Box + pan
製造者 SPXS
バスタイプ Starlink V2M
フェーズステータス In Orbit
所有者/国 SPXS/US

大規模コンステレーション

Loading constellations...